Regional Weather Roundup
Issued by NWS

Home | Current Version | Previous Version | Graphics & Text | Print | Product List | Glossary On
Versions: 1 2 3 4 5 6 7 8 9 10 11 12 13 14 15 16 17 18 19 20 21 22 23 24 25 26 27 28 29 30 31 32 33 34 35 36 37 38 39 40 41 42 43 44 45 46 47 48 49 50
511
ASUS45 KSLC 301710
RWRUT

UTAH REGIONAL WEATHER ROUNDUP
NATIONAL WEATHER SERVICE SALT LAKE CITY UT
1100 AM MDT FRI SEP 30 2016

UTZ001>011-023>025-301800-

NORTHERN UTAH

CITY           SKY/WX    TMP DP  RH WIND       PRES   REMARKS
BRIGHAM CITY     N/A     71  50  48 SE9       30.22F
HILL AFB       MOSUNNY   69  49  49 S15       30.24S
LOGAN          MOSUNNY   62  51  67 VRB3      30.22F
OGDEN          MOSUNNY   71  50  47 S14G21    30.22S
PROVO AIRPORT  PTSUNNY   64  52  63 VRB5      30.27S
SALT LAKE CITY PTSUNNY   69  50  50 S16       30.21S
VERNAL         MOSUNNY   61  54  77 CALM      30.32F
WENDOVER       SUNNY     64  48  55 E6        30.21S
HEBER CITY     PTSUNNY   57  45  62 CALM      30.31S
WEST JORDAN    MOSUNNY   67  51  55 S17       30.25S

$$

UTZ012>022-026-027-301800-

SOUTHERN/CENTRAL UTAH

CITY           SKY/WX    TMP DP  RH WIND       PRES   REMARKS
BLANDING       CLOUDY    60  52  75 S3        30.44S
BRYCE CANYON   SUNNY     59  47  64 CALM      30.43F
CEDAR CITY     MOSUNNY   68  49  50 S8        30.31F
DELTA          SUNNY     70  45  40 S15       30.26S
MILFORD        SUNNY     68  49  50 S15       30.28S
MOAB/CYNLANDS  CLOUDY    66  55  67 CALM      30.29F
PRICE          CLOUDY    59  52  77 E3        30.36S
ST GEORGE      CLOUDY    75  55  50 E8        30.24S

$$

REGIONAL REPORTS     COLORADO/ARIZONA

CITY           SKY/WX    TMP DP  RH WIND       PRES   REMARKS
CRAIG, CO      CLOUDY    62  48  60 W8G23     30.35F
GRAND JUNCTION CLOUDY    63  54  72 SW3       30.33S
RIFLE          NOT AVBL
MONTROSE       CLOUDY    62  52  69 N6        30.38F
CORTEZ         SUNNY     63  50  62 VRB5      30.36F
PAGE, AZ       CLOUDY    67  56  67 CALM      30.29S
GRAND CANYON   PTSUNNY   61  45  55 W7        30.40S
KINGMAN        PTSUNNY   79  52  38 SE13      30.20S
FLAGSTAFF      PTSUNNY   60  48  64 NW5       30.40F

$$

REGIONAL REPORTS    NEVADA/IDAHO/WYOMING

CITY           SKY/WX    TMP DP  RH WIND       PRES   REMARKS
LAS VEGAS, NV  MOSUNNY   80  49  33 VRB5      30.13S
ELY            SUNNY     66  44  45 S9        30.31S
ELKO           SUNNY    N/A N/A N/A MISG      30.21F
POCATELLO, ID  MOSUNNY   65  51  60 NE7       30.19F
BURLEY         SUNNY     67  52  58 NE5       30.15R
EVANSTON, WY   CLOUDY    57  43  59 VRB5      30.36S
ROCK SPRINGS   SUNNY     61  44  53 W8        30.34S

$$




USA.gov is the U.S. government's official web portal to all federal, state and local government web resources and services.